Погода в Владимирове

Россия / Калининградская область     54°33′30″N   20°31′54″E
темп.,
°C
ветер,
м/с
пор.,
м/с
влажн.,
%
обл.,
%
осадки,
мм/ч
давл.,
гПа
погр.,
м
28 сентября, вт
вт2823:00+8вюв4128439 0.0 1025328
02:00+7вюв4119432 0.0 1025241
05:00+6юв410956 0.0 1025262
08:00+8юв4128340 0.0 1025358
11:00+13юв695963 0.0 1026804
14:00+15юв6851100 0.0 10251159
17:00+14юв4859100 0.0 1026682
20:00+10вюв41075100 0.0 1027293
29 сентября, ср
ср2923:00+9юв5137490 0.0 1028379
02:00+8юв4127927 0.0 1028322
05:00+6юв4118945 0.0 1028262
08:00+8юв5128240 0.0 1027375
11:00+13юв6106089 0.0 1027836
14:00+16юв795059 0.0 10251483
17:00+15юв71157100 0.0 10241237
20:00+12юв61464100 0.0 1024797
30 сентября, чт
чт3023:00+11юв71670100 0.0 1023663
02:00+11юв71468100 0.0 1022577
05:00+11ююв61168100 0.1 1022647
08:00+9ююв4991100 2.0 1023378
11:00+11ююз499299 0.1 1024394
14:00+15зюз455491 0.1 10251190
17:00+14юз3658100 0.0 1026344
20:00+10ююз3666100 0.0 1027101
1 октября, пт
пт123:00+9зюз3572100 0.0 102974
02:00+8ююз2270100 0.0 102925
05:00+7ююз33730 0.0 102942
08:00+8ю36705 0.0 1029142
11:00+14ююз465019 0.0 1029782
14:00+16ю4541100 0.0 10281390
17:00+14юв355399 0.0 1027134
20:00+9ююв4106993 0.0 1026184
2 октября, сб
сб223:00+9ююв4118367 0.0 1026237
02:00+8ююв41195100 0.0 1024228
05:00+8юв41085100 0.0 1022224
08:00+9ююв5127973 0.0 1021286
11:00+15ююв6105936 0.0 1019562
14:00+18ююв7105177 0.0 10181115
17:00+17ююв6116195 0.0 1017765
20:00+14ююв61472100 0.0 1017440